SL-16 DEB, 22397

Orbit data source: Space-Track

SL-16 DEB, 22397 is space debris in LEO originally from a launch on Fri, 25 Dec 1992 UTC launched from the Tyuratam Missile And Space Complex (TTMTR). Debris objects in space refer to the collection of defunct objects orbiting the Earth. Examples of debris include non-operational satellites, rocket bodies, and fragments generated from explosions, collisions, or faulty payload assembly.

Loading next visibility...
Identifier
22397, 1992-093CN
Orbit
LEO
Country
Flag of CISCIS
Related business
Manufacturer
Unknown
Mission
Spacecraft
Bus & Motor
Unknown
Mass
Unknown
Launch date (UTC)
1992-12-25 (33 years ago)
Launch vehicle
Unknown
Launch site
Tyuratam Missile And Space Complex (TTMTR)
Object type
Payload
Rocket body
Debris
Shape & HBR
Unknown shape, 0.1 m
Radar Cross Section
Small (<0.1 m²)

Expand to show TLE details & history
Last TLE update: 14 hours ago

TLE from 14 hours ago
0 SL-16 DEB
1 22397U 92093CN  25297.36088190  .00002817  00000-0  10880-2 0  9993
2 22397  70.8012 271.2529 0035689 201.3678 158.5964 14.30706371696077
Epoch: 2025-10-24T08:39Z
TLE epoch observation values (Epoch: 2025-10-24T08:39:40.196Z)
Latitude
0.00001°
Longitude
108.32853°
Altitude
815.607 km
Speed
7.433 km/s
True Right ascension
18h 05m 00s
True Declination
0° 00' 00"
Sunlit
Object was in daylight at epoch
Visualization orbit readout
Latitude
Unknown
Longitude
Unknown
Altitude
Unknown
Speed
Unknown
Apparent Right ascension
Unknown
Apparent Declination
Unknown
Sunlit
N/A
Visualization observer readout
Local Sidereal Time
18:16:27
Azimuth
Unknown
Elevation
Unknown
Doppler factor
Unknown
Orbital elements
Apogee altitude
812.873 km
Perigee altitude
761.727 km
Semi-major axis
7,165.437 km
Eccentricity
0.00357
Inclination
70.8012°
RAAN
271.2529°
Arg. of periapsis
201.3678°
True anomaly
158.74503°
Mean anomaly
158.5964°
Eccentric anomaly
158.67078°
Mean motion
3.57832 °/min
Orbital period
100.61 mins
BSTAR
0.001088
Loading maneuver chart data...
Computing Atmospheric mass density...
Loading historical data...
Loading historical data...
Loading historical data...
Loading historical data...
Loading historical data...
Loading historical data...
Loading historical data...

Documentation

Showing up to 5 results
|